TKJ3BQ LTFJ-LTAW

Flight info

Callsign TKJ3BQ
Flight time 0h 58m
Altitude 33000
Route VICEN UT380 ASMAP UL333 LATGA UT363 GURBU UL615 HAKCE
Aircraft A21N/M-SDE2E3FGHIRWXY/LB1

Departure

Time 2026-04-17 12:42
Airport Istanbul Sabiha Gökçen International Airport (LTFJ)

Arrival

Time 2026-04-17 13:41
Airport Tokat Airport (LTAW)
Time Latitude Longitude Altitude Speed Heading
2026-04-17 12:06 40.90710 29.31852 326 ft 0 kts 334°
2026-04-17 12:06 40.90696 29.31842 322 ft 0 kts 334°
2026-04-17 12:29 40.90686 29.31848 312 ft 4 kts 334°
2026-04-17 12:29 40.90662 29.31863 322 ft 4 kts 334°
2026-04-17 12:30 40.90639 29.31877 323 ft 4 kts 326°
2026-04-17 12:30 40.90627 29.31900 323 ft 4 kts 268°
2026-04-17 12:30 40.90633 29.31933 322 ft 4 kts 246°
2026-04-17 12:30 40.90645 29.31964 322 ft 2 kts 244°
2026-04-17 12:31 40.90645 29.31965 322 ft 0 kts 244°
2026-04-17 12:35 40.90637 29.31947 325 ft 4 kts 230°
2026-04-17 12:35 40.90604 29.31930 326 ft 6 kts 179°
2026-04-17 12:37 40.90279 29.31500 325 ft 20 kts 244°
2026-04-17 12:37 40.90213 29.31322 326 ft 23 kts 244°
2026-04-17 12:38 40.90139 29.31120 324 ft 26 kts 244°
2026-04-17 12:38 40.90059 29.30901 326 ft 27 kts 244°
2026-04-17 12:38 40.89975 29.30673 326 ft 28 kts 244°
2026-04-17 12:38 40.89888 29.30436 325 ft 29 kts 244°
2026-04-17 12:39 40.89798 29.30189 326 ft 30 kts 244°
2026-04-17 12:39 40.89707 29.29944 324 ft 28 kts 244°
2026-04-17 12:39 40.89622 29.29711 326 ft 29 kts 244°
2026-04-17 12:39 40.89534 29.29469 324 ft 30 kts 244°
2026-04-17 12:40 40.89460 29.29278 326 ft 9 kts 229°
2026-04-17 12:40 40.89397 29.29254 326 ft 11 kts 176°
2026-04-17 12:40 40.89324 29.29297 326 ft 12 kts 153°
2026-04-17 12:40 40.89290 29.29379 327 ft 5 kts 71°
2026-04-17 12:41 40.89294 29.29390 326 ft 0 kts 66°
2026-04-17 12:41 40.89310 29.29439 326 ft 28 kts 66°
2026-04-17 12:42 40.89514 29.29988 327 ft 103 kts 63°
2026-04-17 12:42 40.89927 29.31105 328 ft 163 kts 63°
2026-04-17 12:42 40.90464 29.32510 760 ft 176 kts 61°
2026-04-17 12:42 40.91060 29.33980 1360 ft 188 kts 60°
2026-04-17 12:43 40.91679 29.35559 1960 ft 197 kts 61°
2026-04-17 12:43 40.92357 29.37222 2412 ft 218 kts 63°
2026-04-17 12:43 40.92897 29.39162 2886 ft 235 kts 79°
2026-04-17 12:43 40.92867 29.41329 3698 ft 240 kts 103°
2026-04-17 12:44 40.92135 29.43355 4396 ft 254 kts 127°
2026-04-17 12:44 40.90738 29.44828 5118 ft 264 kts 150°
2026-04-17 12:44 40.89051 29.45857 5934 ft 268 kts 155°
2026-04-17 12:44 40.87329 29.46862 6715 ft 272 kts 155°
2026-04-17 12:45 40.85600 29.47901 7521 ft 274 kts 154°
2026-04-17 12:45 40.83857 29.48972 8311 ft 277 kts 154°
2026-04-17 12:45 40.82099 29.50067 9091 ft 281 kts 153°
2026-04-17 12:45 40.80325 29.51180 9875 ft 283 kts 153°
2026-04-17 12:46 40.78547 29.52393 10409 ft 295 kts 147°
2026-04-17 12:46 40.76999 29.54263 10676 ft 314 kts 127°
2026-04-17 12:46 40.76028 29.56929 10928 ft 333 kts 108°
2026-04-17 12:46 40.75429 29.59969 11208 ft 351 kts 104°
2026-04-17 12:47 40.74853 29.63101 11716 ft 360 kts 104°
2026-04-17 12:47 40.74238 29.66332 12351 ft 366 kts 105°
2026-04-17 12:47 40.73614 29.69603 13017 ft 370 kts 102°
2026-04-17 12:47 40.73354 29.73011 13671 ft 376 kts 92°
2026-04-17 12:48 40.73299 29.76485 14277 ft 381 kts 91°
2026-04-17 12:48 40.73254 29.79997 14899 ft 384 kts 91°
2026-04-17 12:48 40.73201 29.83535 15519 ft 388 kts 92°
2026-04-17 12:48 40.73140 29.87114 16133 ft 391 kts 92°
2026-04-17 12:49 40.73076 29.90717 16765 ft 394 kts 92°
2026-04-17 12:49 40.73008 29.94297 17374 ft 398 kts 92°
2026-04-17 12:49 40.72937 29.97959 17988 ft 401 kts 92°
2026-04-17 12:49 40.72862 30.01652 18557 ft 404 kts 92°
2026-04-17 12:50 40.72757 30.05379 19079 ft 407 kts 96°
2026-04-17 12:50 40.72212 30.09043 19597 ft 409 kts 108°
2026-04-17 12:50 40.71296 30.12593 20135 ft 410 kts 111°
2026-04-17 12:50 40.70312 30.16139 20664 ft 413 kts 111°
2026-04-17 12:51 40.69334 30.19704 21174 ft 415 kts 111°
2026-04-17 12:51 40.68367 30.23304 21685 ft 418 kts 110°
2026-04-17 12:51 40.67399 30.26935 22175 ft 421 kts 110°
2026-04-17 12:51 40.66554 30.30645 22633 ft 426 kts 102°
2026-04-17 12:52 40.66142 30.34520 23112 ft 429 kts 97°
2026-04-17 12:52 40.65833 30.38439 23569 ft 432 kts 97°
2026-04-17 12:52 40.65527 30.42389 23948 ft 435 kts 97°
2026-04-17 12:52 40.65209 30.46359 24361 ft 436 kts 97°
2026-04-17 12:53 40.64885 30.50294 24746 ft 439 kts 98°
2026-04-17 12:53 40.64551 30.54299 25121 ft 441 kts 98°
2026-04-17 12:53 40.64210 30.58327 25509 ft 443 kts 98°
2026-04-17 12:53 40.63868 30.62376 25878 ft 446 kts 98°
2026-04-17 12:54 40.63522 30.66451 26242 ft 448 kts 98°
2026-04-17 12:54 40.63141 30.70532 26600 ft 450 kts 101°
2026-04-17 12:54 40.62431 30.74553 26938 ft 451 kts 107°
2026-04-17 12:54 40.61585 30.78550 27293 ft 453 kts 107°
2026-04-17 12:55 40.60727 30.82551 27652 ft 456 kts 107°
2026-04-17 12:55 40.59881 30.86531 27997 ft 458 kts 107°
2026-04-17 12:55 40.59024 30.90578 28347 ft 460 kts 107°
2026-04-17 12:55 40.58163 30.94638 28742 ft 461 kts 107°
2026-04-17 12:56 40.57299 30.98700 29160 ft 460 kts 107°
2026-04-17 12:56 40.56437 31.02753 29563 ft 460 kts 107°
2026-04-17 12:56 40.55574 31.06798 29959 ft 459 kts 107°
2026-04-17 12:56 40.54709 31.10838 30322 ft 458 kts 108°
2026-04-17 12:57 40.53845 31.14864 30680 ft 457 kts 108°
2026-04-17 12:57 40.52981 31.18877 31062 ft 455 kts 108°
2026-04-17 12:57 40.52409 31.21522 31298 ft 454 kts 108°
2026-04-17 12:57 40.51545 31.25514 31621 ft 453 kts 108°
2026-04-17 12:58 40.50685 31.29497 31934 ft 452 kts 108°
2026-04-17 12:58 40.49827 31.33468 32235 ft 452 kts 108°
2026-04-17 12:58 40.48968 31.37434 32516 ft 451 kts 108°
2026-04-17 12:58 40.47826 31.42689 32890 ft 451 kts 108°
2026-04-17 12:59 40.47244 31.45362 32966 ft 450 kts 108°
2026-04-17 12:59 40.45520 31.53261 32969 ft 449 kts 108°
2026-04-17 13:00 40.43796 31.61153 32954 ft 450 kts 108°
2026-04-17 13:00 40.42067 31.69037 32942 ft 449 kts 108°
2026-04-17 13:01 40.40343 31.76868 32951 ft 449 kts 108°
2026-04-17 13:01 40.38603 31.84741 32941 ft 449 kts 108°
2026-04-17 13:02 40.36858 31.92608 32943 ft 449 kts 108°
2026-04-17 13:02 40.35096 32.00479 32941 ft 449 kts 108°
2026-04-17 13:03 40.33331 32.08329 32952 ft 449 kts 108°
2026-04-17 13:03 40.31743 32.16253 32945 ft 450 kts 107°
2026-04-17 13:04 40.30188 32.24144 32946 ft 450 kts 107°
2026-04-17 13:04 40.28620 32.32070 32944 ft 450 kts 107°
2026-04-17 13:05 40.27046 32.39992 32943 ft 450 kts 107°
2026-04-17 13:05 40.25464 32.47915 32941 ft 450 kts 107°
2026-04-17 13:06 40.23877 32.55827 32942 ft 450 kts 107°
2026-04-17 13:06 40.22284 32.63742 32946 ft 449 kts 107°
2026-04-17 13:07 40.20682 32.71660 32942 ft 449 kts 107°
2026-04-17 13:07 40.19080 32.79575 32942 ft 450 kts 107°
2026-04-17 13:08 40.17467 32.87503 32967 ft 450 kts 107°
2026-04-17 13:08 40.15861 32.95359 32965 ft 450 kts 107°
2026-04-17 13:09 40.14705 33.03406 32961 ft 455 kts 93°
2026-04-17 13:09 40.14923 33.11704 32965 ft 458 kts 89°
2026-04-17 13:10 40.15196 33.20026 32964 ft 458 kts 90°
2026-04-17 13:10 40.15435 33.28359 32965 ft 458 kts 90°
2026-04-17 13:11 40.15664 33.36684 32971 ft 458 kts 90°
2026-04-17 13:11 40.15889 33.45004 32974 ft 458 kts 90°
2026-04-17 13:12 40.16106 33.53378 32971 ft 466 kts 90°
2026-04-17 13:12 40.16426 33.66179 32973 ft 472 kts 90°
2026-04-17 13:13 40.16636 33.74765 32971 ft 472 kts 90°
2026-04-17 13:13 40.16745 33.83356 32962 ft 471 kts 96°
2026-04-17 13:14 40.15688 33.91776 32964 ft 469 kts 102°
2026-04-17 13:14 40.14649 34.00092 32953 ft 458 kts 100°
2026-04-17 13:15 40.13763 34.08285 32958 ft 457 kts 100°
2026-04-17 13:15 40.12870 34.16511 32961 ft 457 kts 100°
2026-04-17 13:16 40.11968 34.24760 32962 ft 459 kts 100°
2026-04-17 13:16 40.11058 34.33021 32958 ft 459 kts 100°
2026-04-17 13:17 40.10141 34.41268 32961 ft 460 kts 100°
2026-04-17 13:17 40.09217 34.49545 32960 ft 460 kts 100°
2026-04-17 13:18 40.08286 34.57816 32966 ft 461 kts 100°
2026-04-17 13:18 40.07355 34.66098 32972 ft 461 kts 100°
2026-04-17 13:19 40.06413 34.74393 32969 ft 461 kts 100°
2026-04-17 13:19 40.05471 34.82610 32924 ft 458 kts 100°
2026-04-17 13:20 40.04998 34.86721 32553 ft 459 kts 100°
2026-04-17 13:20 40.04520 34.90845 32278 ft 461 kts 100°
2026-04-17 13:20 40.04037 34.94991 31993 ft 461 kts 100°
2026-04-17 13:20 40.03554 34.99133 31624 ft 463 kts 100°
2026-04-17 13:21 40.03066 35.03301 31321 ft 465 kts 100°
2026-04-17 13:21 40.02576 35.07474 31073 ft 465 kts 100°
2026-04-17 13:21 40.02085 35.11643 30778 ft 464 kts 100°
2026-04-17 13:21 40.01598 35.15785 30249 ft 460 kts 100°
2026-04-17 13:22 40.01111 35.19903 29536 ft 459 kts 100°
2026-04-17 13:22 40.00622 35.24023 28837 ft 457 kts 100°
2026-04-17 13:22 40.00136 35.28108 28171 ft 455 kts 100°
2026-04-17 13:22 39.99651 35.32170 27552 ft 452 kts 100°
2026-04-17 13:23 39.99170 35.36202 26918 ft 449 kts 100°
2026-04-17 13:23 39.98679 35.40216 26283 ft 447 kts 100°
2026-04-17 13:23 39.98176 35.44203 25663 ft 444 kts 100°
2026-04-17 13:23 39.97673 35.48168 25055 ft 442 kts 100°
2026-04-17 13:24 39.97173 35.52116 24441 ft 440 kts 100°
2026-04-17 13:24 39.96675 35.56044 23818 ft 438 kts 100°
2026-04-17 13:24 39.96180 35.59944 23154 ft 434 kts 100°
2026-04-17 13:24 39.95696 35.63761 22504 ft 429 kts 101°
2026-04-17 13:25 39.95208 35.67579 21853 ft 424 kts 101°
2026-04-17 13:25 39.94725 35.71356 21241 ft 419 kts 101°
2026-04-17 13:25 39.94247 35.75083 20646 ft 414 kts 101°
2026-04-17 13:25 39.93772 35.78763 20087 ft 409 kts 101°
2026-04-17 13:26 39.93302 35.82406 19552 ft 404 kts 101°
2026-04-17 13:26 39.92839 35.85991 19043 ft 399 kts 101°
2026-04-17 13:26 39.92424 35.89549 18536 ft 395 kts 96°
2026-04-17 13:26 39.92604 35.93097 17912 ft 393 kts 76°
2026-04-17 13:27 39.93632 35.96332 17432 ft 383 kts 57°
2026-04-17 13:27 39.95328 35.98850 17008 ft 368 kts 37°
2026-04-17 13:27 39.97489 36.00634 16626 ft 372 kts 30°
2026-04-17 13:27 39.99682 36.02436 16223 ft 370 kts 32°
2026-04-17 13:28 40.01803 36.04232 15807 ft 358 kts 32°
2026-04-17 13:28 40.03853 36.05990 15433 ft 347 kts 35°
2026-04-17 13:28 40.05753 36.07837 15119 ft 334 kts 38°
2026-04-17 13:28 40.07551 36.09668 14912 ft 322 kts 38°
2026-04-17 13:29 40.09278 36.11438 14762 ft 309 kts 39°
2026-04-17 13:29 40.10902 36.13204 14540 ft 300 kts 41°
2026-04-17 13:29 40.12468 36.14970 14145 ft 296 kts 41°
2026-04-17 13:29 40.14018 36.16727 13715 ft 294 kts 41°
2026-04-17 13:30 40.15559 36.18471 13220 ft 292 kts 41°
2026-04-17 13:30 40.17093 36.20210 12757 ft 290 kts 42°
2026-04-17 13:30 40.18614 36.21931 12313 ft 288 kts 42°
2026-04-17 13:30 40.20126 36.23633 11882 ft 286 kts 42°
2026-04-17 13:31 40.21633 36.25320 11447 ft 284 kts 42°
2026-04-17 13:31 40.23123 36.26991 11019 ft 281 kts 42°
2026-04-17 13:31 40.24592 36.28631 10589 ft 280 kts 42°
2026-04-17 13:31 40.26074 36.30278 10177 ft 278 kts 42°
2026-04-17 13:32 40.27668 36.31698 9997 ft 280 kts 22°
2026-04-17 13:32 40.29556 36.32185 9686 ft 277 kts 357°
2026-04-17 13:32 40.31408 36.31602 9168 ft 275 kts 331°
2026-04-17 13:32 40.32874 36.30042 8665 ft 272 kts 304°
2026-04-17 13:33 40.33660 36.27836 8184 ft 266 kts 278°
2026-04-17 13:33 40.33634 36.25451 7718 ft 261 kts 255°
2026-04-17 13:33 40.33151 36.23167 7288 ft 259 kts 248°
2026-04-17 13:33 40.32520 36.20952 6868 ft 258 kts 247°
2026-04-17 13:34 40.31888 36.18751 6443 ft 258 kts 247°
2026-04-17 13:34 40.31267 36.16591 6101 ft 253 kts 247°
2026-04-17 13:34 40.30662 36.14484 5914 ft 241 kts 248°
2026-04-17 13:34 40.30087 36.12481 5734 ft 229 kts 248°
2026-04-17 13:35 40.29429 36.10665 5572 ft 210 kts 227°
2026-04-17 13:35 40.28270 36.09636 5594 ft 201 kts 194°
2026-04-17 13:35 40.26911 36.09637 5597 ft 195 kts 159°
2026-04-17 13:35 40.25831 36.10650 5592 ft 192 kts 125°
2026-04-17 13:36 40.25445 36.12290 5585 ft 194 kts 91°
2026-04-17 13:36 40.25647 36.14034 5596 ft 194 kts 77°
2026-04-17 13:36 40.26068 36.15731 5592 ft 196 kts 71°
2026-04-17 13:36 40.26530 36.17393 5545 ft 193 kts 71°
2026-04-17 13:37 40.26986 36.19046 5303 ft 192 kts 71°
2026-04-17 13:37 40.27439 36.20686 5018 ft 191 kts 71°
2026-04-17 13:37 40.27889 36.22319 4716 ft 191 kts 70°
2026-04-17 13:37 40.28339 36.23950 4404 ft 190 kts 70°
2026-04-17 13:38 40.28784 36.25567 4111 ft 189 kts 70°
2026-04-17 13:38 40.29234 36.27201 3809 ft 191 kts 70°
2026-04-17 13:38 40.29671 36.28788 3517 ft 179 kts 70°
2026-04-17 13:38 40.30076 36.30256 3230 ft 163 kts 70°
2026-04-17 13:39 40.30440 36.31577 2972 ft 148 kts 70°
2026-04-17 13:39 40.30788 36.32842 2767 ft 147 kts 70°
2026-04-17 13:39 40.31134 36.34099 2532 ft 146 kts 71°
2026-04-17 13:39 40.31476 36.35350 2327 ft 146 kts 71°
2026-04-17 13:40 40.31827 36.36602 2063 ft 147 kts 71°
2026-04-17 13:40 40.32170 36.37862 1872 ft 147 kts 72°
2026-04-17 13:40 40.32469 36.38988 1855 ft 107 kts 70°
2026-04-17 13:40 40.32652 36.39658 1853 ft 50 kts 71°
2026-04-17 13:41 40.32726 36.39929 1853 ft 27 kts 70°
2026-04-17 13:41 40.32791 36.40172 1855 ft 29 kts 70°
2026-04-17 13:41 40.32844 36.40361 1857 ft 10 kts 66°
2026-04-17 13:41 40.32899 36.40421 1857 ft 12 kts 21°
2026-04-17 13:42 40.32916 36.40489 1857 ft 10 kts 136°
2026-04-17 13:42 40.32865 36.40452 1858 ft 11 kts 259°
2026-04-17 13:42 40.32845 36.40344 1857 ft 14 kts 251°
2026-04-17 13:42 40.32778 36.40097 1855 ft 46 kts 250°
2026-04-17 13:43 40.32651 36.39634 1853 ft 53 kts 250°
2026-04-17 13:43 40.32533 36.39193 1854 ft 50 kts 250°
2026-04-17 13:43 40.32415 36.38764 1853 ft 50 kts 250°
2026-04-17 13:43 40.32318 36.38399 1854 ft 29 kts 251°
2026-04-17 13:44 40.32270 36.38215 1856 ft 22 kts 251°
2026-04-17 13:44 40.32220 36.38025 1856 ft 17 kts 248°
2026-04-17 13:44 40.32162 36.37964 1857 ft 11 kts 180°
2026-04-17 13:44 40.32084 36.37995 1855 ft 12 kts 158°
2026-04-17 13:45 40.31998 36.38034 1855 ft 14 kts 162°
2026-04-17 13:45 40.31960 36.38063 1855 ft 10 kts 130°
2026-04-17 13:45 40.31927 36.38093 1855 ft 5 kts 155°
2026-04-17 13:45 40.31910 36.38102 1855 ft 1 kts 160°
2026-04-17 13:46 40.31904 36.38104 1855 ft 0 kts 160°
2026-04-17 13:47 40.31901 36.38106 1855 ft 0 kts 159°